Home > Weather > Panama City > Past weeks

Flag for USA Past Weather in Panama City, Florida, USA — Yesterday and Last 2 Weeks

Now
75 °F

Thunderstorms. Fog.


Feels Like: 74 °F
Forecast: 76 / 85 °F
Wind: 7 mph from Northwest

Location: Tyndall Air Force Base

Current Time: Jun 30, 2016 at 7:12:44 AM

Latest Report: Jun 30, 2016 at 6:03 AM


Visibility: 3 mi

Pressure: 29.96 "Hg

Humidity: 94%

Dew Point: 73 °F

Location of Panama CityLocation

Past Weather in Panama City — Graph

°F

Panama City Temperature Yesterday

Maximum temperature yesterday: 89 °F (at 1:58 PM)
Minimum temperature yesterday: 75 °F (at 3:58 AM)
Average temperature yesterday: 84 °F

High & Low Weather Summary for the Past Weeks

 TemperatureHumidityPressure
High90 °F (Jun 25, 12:58 PM)100% (Jun 23, 5:58 AM)30.27 "Hg (Jun 23, 5:58 AM)
Low68 °F (Jun 22, 5:58 AM)36% (Jun 20, 2:58 PM)29.87 "Hg (Jun 17, 7:58 PM)
Average82 °F74%30.07 "Hg
* Reported Jun 15 6:58 AM — Jun 30 6:03 AM, Panama City, Weather by CustomWeather, © 2016

Note: Actual official high and low records may vary slightly from our data, if they occured in-between our weather recording intervals... More about our weather records

Advertising

Panama City Weather History for the Previous 24 Hours

Scroll right to see more
 ConditionsComfort  
Time TempWeatherWind HumidityBarometerVisibility
6:03 AM
Thu, Jun 30
75 °FThunderstorms. Fog.7 mph94%29.96 "Hg3 mi
5:58 AM75 °FThunderstorms. Sunny.No wind94%29.96 "Hg10 mi
5:02 AM81 °FThunderstorms. Passing clouds.23 mph84%29.94 "Hg5 mi
4:02 AM82 °FLight rain. Passing clouds.7 mph74%29.93 "Hg10 mi
2:58 AM83 °FPassing clouds.6 mph76%29.94 "Hg10 mi
1:58 AM83 °FPassing clouds.8 mph72%29.95 "Hg10 mi
12:58 AM83 °FClear.8 mph74%29.96 "Hg10 mi
11:58 PM
Wed, Jun 29
83 °FPassing clouds.7 mph76%29.98 "Hg10 mi
10:58 PM83 °FClear.7 mph71%29.98 "Hg10 mi
9:58 PM83 °FPassing clouds.8 mph74%29.98 "Hg10 mi
8:58 PM83 °FClear.7 mph76%29.97 "Hg10 mi
7:58 PM84 °FPassing clouds.5 mph73%29.97 "Hg10 mi
6:58 PM85 °FPassing clouds.6 mph71%29.96 "Hg10 mi
5:58 PM87 °FSunny.7 mph63%29.95 "Hg10 mi
4:58 PM88 °FSunny.10 mph64%29.95 "Hg10 mi
3:58 PM89 °FSunny.12 mph64%29.96 "Hg10 mi
2:58 PM89 °FSunny.12 mph63%29.96 "Hg10 mi
1:58 PM89 °FSunny.12 mph62%29.98 "Hg10 mi
12:58 PM89 °FPassing clouds.12 mph64%29.98 "Hg10 mi
11:58 AM88 °FSunny.9 mph65%29.99 "Hg10 mi
10:58 AM88 °FSunny.12 mph68%29.99 "Hg10 mi
9:58 AM87 °FSunny.8 mph69%30.00 "Hg10 mi
8:58 AM87 °FSunny.10 mph66%30.00 "Hg10 mi
7:58 AM85 °FSunny.8 mph72%29.98 "Hg10 mi
Weather by CustomWeather, © 2016

See weather overviewHow to use our weather pages